Time,TemperatureF,DewpointF,PressureIn,WindDirection,WindDirectionDegrees,WindSpeedMPH,WindSpeedGustMPH,Humidity,HourlyPrecipIn,Conditions,Clouds,dailyrainin,SoftwareType,DateUTC
2013-11-18 00:10:00,57.5,57.0,29.87,NW,307,2.0,3.0,99,0.00,,,0.38,weatherlink.com 1.10,2013-11-18 05:10:00,
2013-11-18 00:25:00,57.3,57.0,29.88,NW,305,3.0,3.0,99,0.00,,,0.38,weatherlink.com 1.10,2013-11-18 05:25:00,
2013-11-18 00:40:00,57.3,57.0,29.88,NE,34,1.0,4.0,99,0.00,,,0.38,weatherlink.com 1.10,2013-11-18 05:40:00,
2013-11-18 00:55:00,57.3,57.0,29.86,NE,34,0.0,2.0,99,0.00,,,0.38,weatherlink.com 1.10,2013-11-18 05:55:00,
2013-11-18 01:10:00,57.3,57.0,29.86,NE,34,1.0,2.0,99,0.00,,,0.38,weatherlink.com 1.10,2013-11-18 06:10:00,
2013-11-18 01:25:00,57.3,57.0,29.84,NE,34,0.0,2.0,99,0.00,,,0.38,weatherlink.com 1.10,2013-11-18 06:25:00,
2013-11-18 01:40:00,57.4,57.0,29.84,NE,52,2.0,3.0,99,0.00,,,0.38,weatherlink.com 1.10,2013-11-18 06:40:00,
2013-11-18 01:55:00,57.5,57.0,29.85,NE,52,1.0,4.0,99,0.00,,,0.38,weatherlink.com 1.10,2013-11-18 06:55:00,
2013-11-18 02:10:00,57.6,57.0,29.83,ENE,63,1.0,2.0,99,0.00,,,0.38,weatherlink.com 1.10,2013-11-18 07:10:00,
2013-11-18 02:25:00,57.5,57.0,29.84,ENE,63,0.0,1.0,99,0.00,,,0.38,weatherlink.com 1.10,2013-11-18 07:25:00,
2013-11-18 02:40:00,57.7,58.0,29.83,ENE,63,0.0,0.0,99,0.00,,,0.38,weatherlink.com 1.10,2013-11-18 07:40:00,
2013-11-18 02:55:00,57.6,57.0,29.85,NNW,332,0.0,4.0,99,0.00,,,0.38,weatherlink.com 1.10,2013-11-18 07:55:00,
2013-11-18 03:10:00,58.0,58.0,29.85,NNW,330,2.0,3.0,99,0.00,,,0.38,weatherlink.com 1.10,2013-11-18 08:10:00,
2013-11-18 03:25:00,58.2,58.0,29.85,WNW,285,2.0,4.0,99,0.00,,,0.38,weatherlink.com 1.10,2013-11-18 08:25:00,
2013-11-18 03:40:00,58.2,58.0,29.86,ENE,70,0.0,3.0,99,0.00,,,0.38,weatherlink.com 1.10,2013-11-18 08:40:00,
2013-11-18 03:55:00,58.2,58.0,29.86,ENE,71,2.0,2.0,99,0.00,,,0.38,weatherlink.com 1.10,2013-11-18 08:55:00,
2013-11-18 04:10:00,58.8,59.0,29.87,NE,49,0.0,4.0,99,0.00,,,0.38,weatherlink.com 1.10,2013-11-18 09:10:00,
2013-11-18 04:25:00,58.7,59.0,29.88,ENE,77,0.0,3.0,99,0.00,,,0.38,weatherlink.com 1.10,2013-11-18 09:25:00,
2013-11-18 04:40:00,58.6,58.0,29.88,SE,129,3.0,5.0,99,0.00,,,0.38,weatherlink.com 1.10,2013-11-18 09:40:00,
2013-11-18 04:55:00,58.5,58.0,29.88,SE,137,0.0,3.0,99,0.00,,,0.38,weatherlink.com 1.10,2013-11-18 09:55:00,
2013-11-18 05:10:00,58.6,58.0,29.88,SE,137,1.0,2.0,99,0.00,,,0.38,weatherlink.com 1.10,2013-11-18 10:10:00,
2013-11-18 05:25:00,58.2,58.0,29.87,SE,137,0.0,2.0,99,0.00,,,0.38,weatherlink.com 1.10,2013-11-18 10:25:00,
2013-11-18 05:40:00,57.5,57.0,29.87,WNW,295,3.0,5.0,99,0.00,,,0.38,weatherlink.com 1.10,2013-11-18 10:40:00,
2013-11-18 05:55:00,57.3,57.0,29.86,ENE,58,0.0,5.0,97,0.00,,,0.38,weatherlink.com 1.10,2013-11-18 10:55:00,
2013-11-18 06:10:00,56.8,56.0,29.86,SE,126,1.0,3.0,98,0.00,,,0.00,weatherlink.com 1.10,2013-11-18 11:10:00,
2013-11-18 06:25:00,55.8,55.0,29.88,SW,225,0.0,4.0,97,0.00,,,0.00,weatherlink.com 1.10,2013-11-18 11:25:00,
2013-11-18 06:40:00,55.9,55.0,29.87,NE,51,3.0,5.0,97,0.00,,,0.00,weatherlink.com 1.10,2013-11-18 11:40:00,
2013-11-18 06:55:00,56.5,56.0,29.89,SE,136,2.0,7.0,98,0.00,,,0.00,weatherlink.com 1.10,2013-11-18 11:55:00,
2013-11-18 07:10:00,56.4,56.0,29.88,SE,135,0.0,2.0,98,0.00,,,0.00,weatherlink.com 1.10,2013-11-18 12:10:00,
2013-11-18 07:25:00,56.6,56.0,29.88,SE,135,0.0,1.0,98,0.00,,,0.00,weatherlink.com 1.10,2013-11-18 12:25:00,
2013-11-18 07:40:00,55.6,55.0,29.90,NE,36,0.0,4.0,97,0.00,,,0.00,weatherlink.com 1.10,2013-11-18 12:40:00,
2013-11-18 07:55:00,56.0,56.0,29.90,NE,35,0.0,2.0,98,0.00,,,0.00,weatherlink.com 1.10,2013-11-18 12:55:00,
2013-11-18 08:10:00,56.7,56.0,29.90,NE,39,0.0,2.0,98,0.00,,,0.00,weatherlink.com 1.10,2013-11-18 13:10:00,
2013-11-18 08:25:00,57.3,56.0,29.90,NE,39,1.0,2.0,95,0.00,,,0.00,weatherlink.com 1.10,2013-11-18 13:25:00,
2013-11-18 08:40:00,57.9,55.0,29.90,WNW,295,3.0,5.0,89,0.00,,,0.00,weatherlink.com 1.10,2013-11-18 13:40:00,
2013-11-18 08:55:00,61.5,50.0,29.89,NW,323,2.0,6.0,66,0.00,,,0.00,weatherlink.com 1.10,2013-11-18 13:55:00,
2013-11-18 09:10:00,62.9,48.0,29.91,WNW,293,4.0,8.0,58,0.00,,,0.00,weatherlink.com 1.10,2013-11-18 14:10:00,
2013-11-18 09:26:00,64.0,48.0,29.90,NW,308,4.0,6.0,57,0.00,,,0.00,weatherlink.com 1.10,2013-11-18 14:26:00,
2013-11-18 09:41:00,65.1,47.0,29.90,West,274,4.0,9.0,53,0.00,,,0.00,weatherlink.com 1.10,2013-11-18 14:41:00,
2013-11-18 09:56:00,65.8,49.0,29.90,WNW,298,3.0,7.0,54,0.00,,,0.00,weatherlink.com 1.10,2013-11-18 14:56:00,
2013-11-18 10:11:00,66.2,48.0,29.90,WNW,303,7.0,13.0,52,0.00,,,0.00,weatherlink.com 1.10,2013-11-18 15:11:00,
2013-11-18 10:26:00,66.9,48.0,29.91,WNW,283,7.0,10.0,50,0.00,,,0.00,weatherlink.com 1.10,2013-11-18 15:26:00,
2013-11-18 10:41:00,67.2,47.0,29.90,NW,309,4.0,10.0,49,0.00,,,0.00,weatherlink.com 1.10,2013-11-18 15:41:00,
2013-11-18 10:56:00,67.5,47.0,29.90,WNW,285,6.0,9.0,48,0.00,,,0.00,weatherlink.com 1.10,2013-11-18 15:56:00,
2013-11-18 11:11:00,68.3,47.0,29.90,WSW,246,3.0,7.0,47,0.00,,,0.00,weatherlink.com 1.10,2013-11-18 16:11:00,
2013-11-18 11:26:00,69.1,47.0,29.89,NNW,343,4.0,7.0,46,0.00,,,0.00,weatherlink.com 1.10,2013-11-18 16:26:00,
2013-11-18 11:41:00,70.3,47.0,29.88,NNW,332,7.0,9.0,44,0.00,,,0.00,weatherlink.com 1.10,2013-11-18 16:41:00,
2013-11-18 11:56:00,70.4,46.0,29.88,WNW,290,4.0,12.0,42,0.00,,,0.00,weatherlink.com 1.10,2013-11-18 16:56:00,
2013-11-18 12:11:00,70.1,47.0,29.88,NW,315,9.0,15.0,44,0.00,,,0.00,weatherlink.com 1.10,2013-11-18 17:11:00,
2013-11-18 12:26:00,70.9,46.0,29.88,NNW,334,8.0,17.0,41,0.00,,,0.00,weatherlink.com 1.10,2013-11-18 17:26:00,
2013-11-18 12:41:00,71.0,47.0,29.87,NW,308,6.0,16.0,42,0.00,,,0.00,weatherlink.com 1.10,2013-11-18 17:41:00,
2013-11-18 12:56:00,71.2,46.0,29.87,NNW,347,8.0,15.0,41,0.00,,,0.00,weatherlink.com 1.10,2013-11-18 17:56:00,
2013-11-18 13:11:00,71.2,44.0,29.87,NNW,347,14.0,16.0,38,0.00,,,0.00,weatherlink.com 1.10,2013-11-18 18:11:00,
2013-11-18 13:26:00,71.0,45.0,29.88,NW,322,10.0,15.0,39,0.00,,,0.00,weatherlink.com 1.10,2013-11-18 18:26:00,
2013-11-18 13:41:00,70.8,41.0,29.88,NNW,330,11.0,17.0,34,0.00,,,0.00,weatherlink.com 1.10,2013-11-18 18:41:00,
2013-11-18 13:56:00,70.1,39.0,29.88,NNW,339,7.0,19.0,32,0.00,,,0.00,weatherlink.com 1.10,2013-11-18 18:56:00,
2013-11-18 14:11:00,69.4,36.0,29.88,WNW,295,9.0,20.0,29,0.00,,,0.00,weatherlink.com 1.10,2013-11-18 19:11:00,
2013-11-18 14:26:00,69.6,35.0,29.88,NW,310,8.0,17.0,28,0.00,,,0.00,weatherlink.com 1.10,2013-11-18 19:26:00,
2013-11-18 14:41:00,69.4,33.0,29.88,NNW,343,6.0,19.0,26,0.00,,,0.00,weatherlink.com 1.10,2013-11-18 19:41:00,
2013-11-18 14:56:00,69.8,34.0,29.89,NW,311,7.0,12.0,27,0.00,,,0.00,weatherlink.com 1.10,2013-11-18 19:56:00,
2013-11-18 15:11:00,68.6,34.0,29.88,NW,312,10.0,15.0,28,0.00,,,0.00,weatherlink.com 1.10,2013-11-18 20:11:00,
2013-11-18 15:26:00,67.6,35.0,29.88,NW,316,10.0,16.0,30,0.00,,,0.00,weatherlink.com 1.10,2013-11-18 20:26:00,
2013-11-18 15:41:00,66.9,37.0,29.88,WNW,289,7.0,13.0,33,0.00,,,0.00,weatherlink.com 1.10,2013-11-18 20:41:00,
2013-11-18 15:56:00,65.8,37.0,29.88,WNW,302,13.0,19.0,34,0.00,,,0.00,weatherlink.com 1.10,2013-11-18 20:56:00,
2013-11-18 16:11:00,64.9,36.0,29.89,WNW,297,7.0,15.0,35,0.00,,,0.00,weatherlink.com 1.10,2013-11-18 21:11:00,
2013-11-18 16:26:00,63.9,37.0,29.89,NW,316,6.0,11.0,37,0.00,,,0.00,weatherlink.com 1.10,2013-11-18 21:26:00,
2013-11-18 16:41:00,63.1,37.0,29.89,NW,326,8.0,11.0,38,0.00,,,0.00,weatherlink.com 1.10,2013-11-18 21:41:00,
2013-11-18 16:56:00,62.2,37.0,29.89,NW,306,5.0,10.0,39,0.00,,,0.00,weatherlink.com 1.10,2013-11-18 21:56:00,
2013-11-18 17:11:00,61.3,37.0,29.89,WNW,303,5.0,11.0,41,0.00,,,0.00,weatherlink.com 1.10,2013-11-18 22:11:00,
2013-11-18 17:26:00,60.5,35.0,29.90,NW,316,6.0,11.0,38,0.00,,,0.00,weatherlink.com 1.10,2013-11-18 22:26:00,
2013-11-18 17:41:00,60.0,33.0,29.90,NNW,333,4.0,11.0,36,0.00,,,0.00,weatherlink.com 1.10,2013-11-18 22:41:00,
2013-11-18 17:56:00,59.2,33.0,29.91,NNW,330,2.0,10.0,37,0.00,,,0.00,weatherlink.com 1.10,2013-11-18 22:56:00,
2013-11-18 18:11:00,58.7,32.0,29.91,NW,310,1.0,8.0,37,0.00,,,0.00,weatherlink.com 1.10,2013-11-18 23:11:00,
2013-11-18 18:26:00,58.4,31.0,29.92,NE,40,1.0,5.0,36,0.00,,,0.00,weatherlink.com 1.10,2013-11-18 23:26:00,
2013-11-18 18:41:00,57.7,32.0,29.92,NW,321,1.0,4.0,38,0.00,,,0.00,weatherlink.com 1.10,2013-11-18 23:41:00,
2013-11-18 18:56:00,56.1,31.0,29.93,NNW,328,1.0,3.0,39,0.00,,,0.00,weatherlink.com 1.10,2013-11-18 23:56:00,
2013-11-18 19:11:00,55.1,31.0,29.93,NNW,328,0.0,1.0,40,0.00,,,0.00,weatherlink.com 1.10,2013-11-19 00:11:00,
2013-11-18 19:27:00,54.7,30.0,29.93,NNW,328,0.0,1.0,39,0.00,,,0.00,weatherlink.com 1.10,2013-11-19 00:27:00,
2013-11-18 19:42:00,54.6,30.0,29.94,NNW,328,0.0,2.0,39,0.00,,,0.00,weatherlink.com 1.10,2013-11-19 00:42:00,
2013-11-18 19:57:00,54.4,30.0,29.94,NNW,328,1.0,2.0,39,0.00,,,0.00,weatherlink.com 1.10,2013-11-19 00:57:00,
2013-11-18 20:12:00,53.8,30.0,29.95,ENE,70,0.0,4.0,40,0.00,,,0.00,weatherlink.com 1.10,2013-11-19 01:12:00,
2013-11-18 20:27:00,52.3,33.0,29.95,ENE,70,1.0,2.0,48,0.00,,,0.00,weatherlink.com 1.10,2013-11-19 01:27:00,
2013-11-18 20:42:00,50.5,34.0,29.95,East,87,3.0,3.0,53,0.00,,,0.00,weatherlink.com 1.10,2013-11-19 01:42:00,
2013-11-18 20:57:00,49.8,33.0,29.96,ENE,75,1.0,3.0,53,0.00,,,0.00,weatherlink.com 1.10,2013-11-19 01:57:00,
2013-11-18 21:12:00,50.5,32.0,29.96,ENE,66,0.0,2.0,50,0.00,,,0.00,weatherlink.com 1.10,2013-11-19 02:12:00,
2013-11-18 21:27:00,49.7,33.0,29.97,ENE,66,0.0,2.0,53,0.00,,,0.00,weatherlink.com 1.10,2013-11-19 02:27:00,
2013-11-18 21:42:00,47.3,33.0,29.97,ENE,66,0.0,2.0,58,0.00,,,0.00,weatherlink.com 1.10,2013-11-19 02:42:00,
2013-11-18 21:57:00,47.0,33.0,29.97,East,85,0.0,2.0,58,0.00,,,0.00,weatherlink.com 1.10,2013-11-19 02:57:00,
2013-11-18 22:12:00,47.4,33.0,29.98,ENE,66,0.0,3.0,57,0.00,,,0.00,weatherlink.com 1.10,2013-11-19 03:12:00,
2013-11-18 22:27:00,47.5,33.0,29.98,ENE,66,0.0,1.0,57,0.00,,,0.00,weatherlink.com 1.10,2013-11-19 03:27:00,
2013-11-18 22:42:00,46.5,33.0,29.98,ENE,66,0.0,1.0,60,0.00,,,0.00,weatherlink.com 1.10,2013-11-19 03:42:00,
2013-11-18 22:57:00,45.7,32.0,29.99,ENE,66,0.0,1.0,60,0.00,,,0.00,weatherlink.com 1.10,2013-11-19 03:57:00,
2013-11-18 23:12:00,46.7,32.0,29.99,ENE,66,0.0,1.0,56,0.00,,,0.00,weatherlink.com 1.10,2013-11-19 04:12:00,
2013-11-18 23:27:00,47.7,32.0,29.99,ENE,66,0.0,2.0,55,0.00,,,0.00,weatherlink.com 1.10,2013-11-19 04:27:00,
2013-11-18 23:42:00,47.3,33.0,29.99,NE,40,0.0,4.0,57,0.00,,,0.00,weatherlink.com 1.10,2013-11-19 04:42:00,
2013-11-18 23:57:00,45.9,33.0,29.99,East,99,0.0,3.0,60,0.00,,,0.00,weatherlink.com 1.10,2013-11-19 04:57:00,